• In Russia
  • List of Countries
  • For 7 days
  • Water Temperature
  • Satellite Maps
  • Weather Map
  • Weather Widgets
  • user-avatar
    Login

    Hourly Weather Nakhchivan

    Today, 17 August, Friday

    Time Temperature Precipitation Wind Pressure Humidity
    00:00 +28°C° 0 mm 2 mps 687 mmHg 46%
    01:00 +28°C° 0 mm 2 mps 686 mmHg 47%
    02:00 +27°C° 0 mm 2 mps 686 mmHg 48%
    03:00 +26°C° 0 mm 1 mps 686 mmHg 48%
    04:00 +27°C° 0 mm 1 mps 686 mmHg 48%
    05:00 +27°C° 0 mm 1 mps 686 mmHg 47%
    06:00 +27°C° 0 mm 1 mps 686 mmHg 46%
    07:00 +28°C° 0 mm 1 mps 686 mmHg 41%
    08:00 +30°C° 0 mm 1 mps 686 mmHg 36%
    09:00 +32°C° 0 mm 1 mps 687 mmHg 30%
    10:00 +33°C° 0 mm 1 mps 686 mmHg 27%
    11:00 +35°C° 0 mm 1 mps 686 mmHg 25%
    12:00 +37°C° 0 mm 2 mps 686 mmHg 22%
    13:00 +38°C° 0 mm 2 mps 686 mmHg 20%
    14:00 +38°C° 0 mm 2 mps 685 mmHg 19%
    15:00 +39°C° 0 mm 3 mps 685 mmHg 19%
    16:00 +38°C° 0 mm 3 mps 685 mmHg 20%
    17:00 +38°C° 0 mm 3 mps 685 mmHg 20%
    18:00 +37°C° 0 mm 4 mps 685 mmHg 21%
    19:00 +36°C° 0 mm 3 mps 685 mmHg 25%
    20:00 +34°C° 0 mm 3 mps 684 mmHg 30%
    21:00 +32°C° 0 mm 2 mps 684 mmHg 34%
    22:00 +31°C° 0 mm 2 mps 684 mmHg 37%
    23:00 +30°C° 0 mm 2 mps 684 mmHg 39%

    Tomorrow, 18 August, Saturday

    Time Temperature Precipitation Wind Pressure Humidity
    00:00 +29°C° 0 mm 2 mps 684 mmHg 42%
    01:00 +29°C° 0 mm 2 mps 684 mmHg 43%
    02:00 +28°C° 0 mm 2 mps 684 mmHg 45%
    03:00 +27°C° 0 mm 2 mps 683 mmHg 47%
    04:00 +27°C° 0 mm 2 mps 683 mmHg 47%
    05:00 +27°C° 0 mm 1 mps 683 mmHg 47%
    06:00 +27°C° 0 mm 1 mps 683 mmHg 48%
    07:00 +29°C° 0 mm 1 mps 684 mmHg 42%
    08:00 +30°C° 0 mm 1 mps 684 mmHg 37%
    09:00 +32°C° 0 mm 1 mps 684 mmHg 31%
    10:00 +34°C° 0 mm 2 mps 683 mmHg 28%
    11:00 +36°C° 0 mm 2 mps 683 mmHg 25%
    12:00 +37°C° 0 mm 2 mps 683 mmHg 21%
    13:00 +38°C° 0 mm 3 mps 682 mmHg 20%
    14:00 +38°C° 0 mm 3 mps 682 mmHg 19%
    15:00 +40°C° 0 mm 4 mps 682 mmHg 17%
    16:00 +38°C° 0 mm 4 mps 681 mmHg 19%
    17:00 +38°C° 0 mm 4 mps 681 mmHg 21%
    18:00 +37°C° 0 mm 5 mps 681 mmHg 22%
    19:00 +35°C° 0 mm 4 mps 681 mmHg 27%
    20:00 +34°C° 0 mm 4 mps 682 mmHg 31%
    21:00 +31°C° 0 mm 3 mps 682 mmHg 36%
    22:00 +30°C° 0 mm 3 mps 682 mmHg 39%
    23:00 +29°C° 0 mm 3 mps 682 mmHg 42%

    Day after tomorrow, 19 August, Sunday

    Time Temperature Precipitation Wind Pressure Humidity
    00:00 +28°C° 0 mm 2 mps 682 mmHg 45%
    01:00 +28°C° 0 mm 2 mps 682 mmHg 47%
    02:00 +27°C° 0 mm 2 mps 682 mmHg 48%
    03:00 +26°C° 0 mm 2 mps 682 mmHg 50%
    04:00 +26°C° 0 mm 2 mps 682 mmHg 50%
    05:00 +26°C° 0 mm 2 mps 682 mmHg 50%
    06:00 +26°C° 0 mm 2 mps 683 mmHg 50%
    07:00 +27°C° 0 mm 2 mps 683 mmHg 45%
    08:00 +29°C° 0 mm 2 mps 683 mmHg 39%
    09:00 +30°C° 0 mm 2 mps 683 mmHg 34%
    10:00 +31°C° 0 mm 2 mps 683 mmHg 31%
    11:00 +34°C° 0 mm 3 mps 683 mmHg 28%
    12:00 +35°C° 0 mm 3 mps 683 mmHg 24%
    13:00 +35°C° 0 mm 3 mps 683 mmHg 24%
    14:00 +36°C° 0 mm 4 mps 683 mmHg 23%
    15:00 +36°C° 0 mm 4 mps 682 mmHg 22%
    16:00 +35°C° 0.1 mm 5 mps 682 mmHg 24%
    17:00 +34°C° 0.1 mm 5 mps 682 mmHg 26%
    18:00 +33°C° 0.1 mm 5 mps 682 mmHg 28%
    19:00 +32°C° 0.1 mm 5 mps 683 mmHg 31%
    20:00 +30°C° 0.1 mm 4 mps 683 mmHg 34%
    21:00 +29°C° 0.1 mm 4 mps 684 mmHg 37%
    22:00 +28°C° 0 mm 3 mps 684 mmHg 40%
    23:00 +27°C° 0 mm 3 mps 684 mmHg 42%

    20 August, Monday

    Time Temperature Precipitation Wind Pressure Humidity
    00:00 +26°C° 0 mm 3 mps 684 mmHg 44%
    01:00 +26°C° 0 mm 3 mps 684 mmHg 46%
    02:00 +25°C° 0 mm 2 mps 684 mmHg 47%
    03:00 +24°C° 0 mm 2 mps 684 mmHg 49%
    04:00 +24°C° 0 mm 2 mps 685 mmHg 49%
    05:00 +24°C° 0 mm 2 mps 685 mmHg 50%
    06:00 +24°C° 0 mm 2 mps 685 mmHg 50%
    07:00 +25°C° 0 mm 2 mps 686 mmHg 46%
    08:00 +27°C° 0 mm 2 mps 686 mmHg 41%
    09:00 +28°C° 0 mm 2 mps 686 mmHg 37%
    10:00 +29°C° 0 mm 3 mps 687 mmHg 34%
    11:00 +31°C° 0 mm 3 mps 687 mmHg 31%
    12:00 +33°C° 0 mm 4 mps 687 mmHg 28%
    13:00 +34°C° 0 mm 5 mps 686 mmHg 27%
    14:00 +35°C° 0 mm 5 mps 686 mmHg 26%
    15:00 +35°C° 0 mm 6 mps 686 mmHg 25%
    16:00 +34°C° 0 mm 6 mps 686 mmHg 27%
    17:00 +34°C° 0 mm 6 mps 686 mmHg 29%
    18:00 +33°C° 0 mm 5 mps 686 mmHg 31%
    19:00 +30°C° 0 mm 5 mps 686 mmHg 36%
    20:00 +29°C° 0 mm 4 mps 687 mmHg 40%
    21:00 +27°C° 0 mm 4 mps 687 mmHg 45%
    22:00 +27°C° 0 mm 3 mps 687 mmHg 47%
    23:00 +26°C° 0 mm 3 mps 687 mmHg 48%

    21 August, Tuesday

    Time Temperature Precipitation Wind Pressure Humidity
    00:00 +25°C° 0 mm 3 mps 687 mmHg 50%
    01:00 +25°C° 0 mm 2 mps 687 mmHg 51%
    02:00 +25°C° 0 mm 2 mps 687 mmHg 53%
    03:00 +24°C° 0 mm 2 mps 687 mmHg 54%
    04:00 +24°C° 0 mm 1 mps 687 mmHg 54%
    05:00 +24°C° 0 mm 1 mps 687 mmHg 54%
    06:00 +24°C° 0 mm 1 mps 687 mmHg 53%
    07:00 +26°C° 0 mm 1 mps 688 mmHg 48%
    08:00 +27°C° 0 mm 1 mps 688 mmHg 43%
    09:00 +29°C° 0 mm 1 mps 688 mmHg 38%
    10:00 +30°C° 0 mm 2 mps 688 mmHg 34%
    11:00 +32°C° 0 mm 2 mps 688 mmHg 30%
    12:00 +34°C° 0 mm 2 mps 687 mmHg 27%
    13:00 +35°C° 0 mm 3 mps 687 mmHg 25%
    14:00 +36°C° 0 mm 3 mps 687 mmHg 23%
    15:00 +37°C° 0 mm 3 mps 686 mmHg 21%
    16:00 +36°C° 0 mm 4 mps 686 mmHg 23%
    17:00 +36°C° 0 mm 4 mps 686 mmHg 24%
    18:00 +35°C° 0 mm 4 mps 686 mmHg 25%
    19:00 +33°C° 0 mm 4 mps 687 mmHg 31%
    20:00 +31°C° 0 mm 3 mps 687 mmHg 36%
    21:00 +29°C° 0 mm 3 mps 687 mmHg 41%
    22:00 +28°C° 0 mm 3 mps 687 mmHg 44%
    23:00 +28°C° 0 mm 2 mps 687 mmHg 46%

    22 August, Wednesday

    Time Temperature Precipitation Wind Pressure Humidity
    00:00 +27°C° 0 mm 2 mps 687 mmHg 49%
    01:00 +27°C° 0 mm 2 mps 687 mmHg 50%
    02:00 +26°C° 0 mm 2 mps 687 mmHg 52%
    03:00 +26°C° 0 mm 2 mps 687 mmHg 53%
    04:00 +25°C° 0 mm 2 mps 687 mmHg 53%
    05:00 +25°C° 0 mm 2 mps 687 mmHg 53%
    06:00 +25°C° 0 mm 1 mps 687 mmHg 54%
    07:00 +27°C° 0 mm 2 mps 688 mmHg 48%
    08:00 +28°C° 0 mm 2 mps 688 mmHg 42%
    09:00 +30°C° 0 mm 2 mps 688 mmHg 36%
    10:00 +31°C° 0 mm 2 mps 688 mmHg 32%
    11:00 +34°C° 0 mm 2 mps 687 mmHg 29%
    12:00 +35°C° 0 mm 2 mps 687 mmHg 25%
    13:00 +36°C° 0 mm 2 mps 687 mmHg 24%
    14:00 +36°C° 0 mm 3 mps 686 mmHg 22%
    15:00 +37°C° 0 mm 3 mps 686 mmHg 21%
    16:00 +36°C° 0 mm 3 mps 686 mmHg 22%
    17:00 +36°C° 0 mm 4 mps 686 mmHg 23%
    18:00 +35°C° 0 mm 4 mps 686 mmHg 25%
    19:00 +34°C° 0 mm 4 mps 687 mmHg 29%
    20:00 +31°C° 0 mm 3 mps 687 mmHg 34%
    21:00 +29°C° 0 mm 3 mps 688 mmHg 38%
    22:00 +29°C° 0 mm 3 mps 688 mmHg 41%
    23:00 +28°C° 0 mm 3 mps 688 mmHg 43%
    Show more